Regional Weather Roundup
Issued by NWS Wakefield, VA

Home | Current Version | Previous Version | Graphics & Text | Print | Product List | Glossary On
Versions: 1 2 3 4 5 6 7 8 9 10 11 12 13 14 15 16 17 18 19 20 21 22 23 24 25 26 27
000
ASUS41 KAKQ 210915
RWRAKQ

REGIONAL WEATHER ROUNDUP
NATIONAL WEATHER SERVICE WAKEFIELD VA
500 AM EDT FRI JUL 21 2017

Note: "fair" indicates few or no clouds below 12,000 feet with no
significant weather and/or obstructions to visibility. * = Denotes
station may not report precipitation (e.g., rain,snow,etc.),
thunder or fog.

VAZ042-051-052>054-056-211000-
NORTHERN VIRGINIA

CITY           SKY/WX    TMP DP  RH WIND       PRES   REMARKS
WASH NATIONAL  PTCLDY    84  72  67 CALM      29.92R
DULLES         MOCLDY    75  68  78 CALM      29.93S
FORT BELVOIR   CLOUDY    73  69  89 CALM      29.92R
QUANTICO       PTCLDY    77  75  93 NW5       29.93S
FREDERICKSBRG* PTCLDY    74  74 100 CALM      29.92S
STAFFORD*      PTCLDY    70  70 100 NW3       29.97S FOG
WARRENTON      FOG       70  67  89 CALM      29.93S VSB 3/4
CULPEPER*      PTCLDY    71  71  99 CALM      29.95S FOG
MANASSAS*      CLOUDY    73  72  96 CALM      29.93S FOG
LEESBURG*      PTCLDY    79  70  73 W5        29.94S
WINCHESTER     CLEAR     70  64  83 CALM      29.96S
FRONT ROYAL*   CLOUDY    72  68  88 S5        29.95S
LURAY*         MOSUNNY   72  68  88 CALM      29.98S
$$

VAZ048-049-060>072-079>083-211000-
CENTRAL AND SOUTH CENTRAL VIRGINIA

CITY           SKY/WX    TMP DP  RH WIND       PRES   REMARKS
RICHMOND       CLOUDY    77  71  82 CALM      29.93S
CHESTERFIELD*  FAIR      75  71  87 CALM      29.94S
PETERSBURG*    CLEAR     71  71  99 CALM      29.94F
HANOVER        PTCLDY    74  70  87 CALM      29.94S
TAPPAHANNOCK*  PTCLDY    76  71  83 CALM      29.94S
QUINTON*       FAIR      74  74 100 MISG      29.92S
CHARLOTTSVILLE CLOUDY    74  69  85 CALM      29.95F
GORDONSVILLE*  CLOUDY    72  70  94 CALM      29.95S
ORANGE*        CLOUDY    70  68  94 CALM      29.94S
LOUISA*        PTCLDY    68  64  88 CALM      29.95R
BUMPASS*       NOT AVBL
FARMVILLE*     PTCLDY    73  71  93 CALM      29.94F
CREWE*         FAIR      72  68  87 CALM      29.95S
FORT PICKETT*  FAIR     N/A N/A N/A CALM      29.95S
CHASE CITY*    FAIR      74  74  99 CALM      29.96F
CLARKSVILLE*   FAIR      72  72 100 CALM      29.96S
SOUTH HILL*    CLEAR     73  72  95 SW5       30.01S
LAWRENCEVILLE* FAIR      73  70  91 CALM      29.95S
EMPORIA*       CLEAR     73  72  94 CALM      29.96S
$$

VAZ088>098-211000-
SOUTHEAST VIRGINIA

CITY           SKY/WX    TMP DP  RH WIND       PRES   REMARKS
NORFOLK        CLEAR     78  75  90 SW10      29.94S
VIRGINIA BEACH MOCLDY    77  72  84 SW8       29.94S
NORFOLK NAVAL  MOCLDY    79  74  84 S8        29.95S
WEST POINT*    CLOUDY    77  71  83 SW5       29.94S
SALUDA*        FAIR      78  73  85 NW5       29.93R
NEWPORT NEWS   CLEAR     79  74  84 SW7       29.93F
LANGLEY AFB    CLEAR     79  75  86 SW9       29.93S
FORT EUSTIS    CLEAR     78  74  86 S3        29.91S
WILLIAMSBURG*  CLEAR     81  73  78 CALM      29.94S
HR EXEC AP*    FAIR      75  72  88 SW3       29.92F
FRANKLIN*      CLEAR     75  73  94 CALM      29.95S
US460-WAKEFLD  CLEAR     76  74  93 S5        29.94S
$$

VAZ020-022-025-037-045-211000-
WEST CENTRAL AND SOUTHWEST VIRGINIA

CITY           SKY/WX    TMP DP  RH WIND       PRES   REMARKS
STAUNTON*      CLOUDY    71  68  90 CALM      30.02S
WAYNESBORO*    PTSUNNY   69  68  94 CALM      30.01F
HOT SPRINGS VA CLOUDY    68  59  73 W10       30.16S
LYNCHBURG      CLOUDY    69  67  93 CALM      29.99F
DANVILLE       CLOUDY    72  72 100 S3        29.98S
SOUTH BOSTON*  FAIR      74  73  96 CALM      29.96F
MARTINSVILLE   CLEAR     67  66  97 CALM      30.03F FOG
ROANOKE        PTCLDY    73  66  78 W3        30.04S
BLACKSBURG     CLEAR     67  64  87 CALM      30.12S
DUBLIN*        CLEAR     68  61  78 W3        30.10F
MARION*        CLEAR     65  61  88 CALM      30.16S
HILLSVILLE*    CLEAR     66  61  84 CALM      30.12S
RICHLANDS*     FAIR      69  61  76 CALM      30.14S
WISE*          CLOUDY    70  68  94 CALM      30.15S
ABINGDON*      PTCLDY    69  67  93 CALM      30.11S
$$

MDZ021>025-VAZ099-100-211000-
SOUTHERN MARYLAND AND THE DELMARVA PENINSULA

CITY           SKY/WX    TMP DP  RH WIND       PRES   REMARKS
PATUXENT RIVER CLOUDY    77  75  93 W3        29.91R
BAY BRIDGE APT PTCLDY    82  72  69 W7        29.90S
LEONARDTOWN    CLOUDY   N/A N/A N/A CALM      29.94S
DOVER          PTCLDY    78  78 100 SW6       29.88R
GEORGETOWN     CLOUDY    81  75  82 SW6       29.90S
EASTON         CLOUDY    80  75  86 CALM      29.94S
CAMBRIDGE      CLEAR     77  73  88 CALM      29.90S
SALISBURY      NOT AVBL
OCEAN CITY     CLOUDY    80  76  87 W9        29.90S
WALLOPS ISLAND CLOUDY    78  75  90 SW6       29.92S
ACCOMACK*      CLEAR     79  75  87 W5        29.93R
$$

NCZ012>017-030>032-211000-
NORTH CENTRAL AND EASTERN NORTH CAROLINA

CITY           SKY/WX    TMP DP  RH WIND       PRES   REMARKS
ROANOKE RAPIDS FAIR      73  73 100 S5        29.95F
RALEIGH        PTCLDY    76  72  87 CALM      29.98S
ELIZABETH CITY PTCLDY    75  75 100 SW6       29.96S
AHOSKIE*         N/A     74  73  98 CALM      29.96S
EDENTON*       PTCLDY    79  75  85 CALM      29.97S
CURRITUCK*     PTCLDY    77  77 100 SW3       29.96S
KILL DEVIL HLS PTCLDY    78  72  83 CALM      29.96S
MANTEO         PTCLDY    77  73  88 W6        29.97F
CAPE HATTERAS  PTCLDY    79  75  87 W5        29.98F
TARBORO*       NOT AVBL
GOLDSBORO      CLEAR     76  76 100 SW3       29.97R
WASHINGTON     CLEAR     76  73  92 SW8       29.98S
GREENVILLE     CLEAR     77  75  94 W3        29.99S
NEW BERN       CLEAR     75  75 100 SW3       29.99F
WILMINGTON     CLEAR     77  76  96 SW6       29.99S
$$

VAZ048-211000-
ELSEWHERE

CITY           SKY/WX    TMP DP  RH WIND       PRES   REMARKS
HARRISBURG PA  PTCLDY    78  70  76 NW8       29.91S
BALTIMORE      MOCLDY    78  70  76 W5        29.90S
ANNAPOLIS      PTCLDY    79  74  84 W6        29.89S
ANDREWS AFB    PTCLDY    81  69  66 W3        29.91S
PHILADELPHIA   MOCLDY    80  73  79 W5        29.89S
HENDERSON NC   CLEAR     72  69  90 SW5       29.97S
GREENSBORO     CLEAR     75  73  93 SW3       30.00S
ROCKY MOUNT    CLEAR     75  75 100 S6        29.97S
$$

VAZ100-211000-
MARINE

STATION/POSITION TIME  TEMP    WIND        PRES    WAVE   SWELL
                       AIR SEA DIR/SP/G            HT/PER HT/PER
                 (UTC) (F)     (DEG/KT/KT) (MB)    (FT/S) (FT/S)
BRANDYWINE LGT   0848   79     250/ 13/ 14 1012.5R
CAPE MAY NJ      0848   77 74  250/  5/  7 1011.6R
LEWES DE         0848   80 71  250/  8/ 12 1011.9R
15NM E FENWICK I 0850   75 74  210/ 14/ 14 1012.5F   3/ 6   2/14
OCEAN-CITY-INLET 0848   80 72  260/  8/ 10 1012.8S
WACHAPREAGUE VA  0848   79 84  220/  2/  4 1013.2S
THOMAS POINT MD  0900   83 82  290/  9/ 10   N/A
GOOSES REEF MD   0850   83     300/  8/ 10 1013.5R
COVE POINT MD    0848   81     280/  4/  6 1013.4R
SOLOMONS ISLAND  0848   81 84  270/  1/  4   N/A
BISHOPS HEAD MD  0848   83 85  270/ 12/ 13 1012.9R
PINEY POINT MD   0842          270/  7/  8   N/A
POTOMAC MD       0850   82     260/ 12/ 14 1011.9R
CAMBRIDGE MD     0848   80 87              1013.4R
LEWISETTA VA     0848   80 85  250/  8/ 10 1012.9S
RAPPAHANNOCK LGT 0842          230/ 13/ 15 1013.8S
STINGRAY PT      0850   82     260/ 12/ 16 1013.1F
YORK RVR RNG VA  0848   81     250/ 10/ 12 1013.6S
YORKTOWN VA      0848   80 83  230/ 10/ 11 1012.9F
JAMESTOWN VA     0850          290/  2/  6   N/A
DOMINION TERM VA 0848   80     210/  9/ 12 1013.7S
KIPTOPEKE VA     0848      79  240/ 12/ 15   N/A
CHES BAY BRIDGE  0848   79 81  230/ 11/ 13 1013.6R
CAPE HENRY VA    0848   79     230/  9/ 13   N/A
WILLOUBY STN VA  0848   79     220/ 10/ 11 1013.6F
S CRANEY ISL VA  0848   79     200/  5/  8 1013.6S
CAPE HENRY BUOY  0830      75                N/A     2/ 6   2/14
1ST LANDING BUOY 0850   81                 1013.6S
64NM E OF VA BCH 0850   80 80  230/ 12/ 14 1014.6F   3/ 4   2/14
DUCK PIER NC     0848   80 60  230/  9/ 11 1014.1F
44100 DUCK FRF   0805      76                N/A     2/15   2/15
44056 DUCK FRF   0900      63                N/A     2/14   2/14
OREGON INLET NC  0848          230/ 12/ 14   N/A
HATTERAS NC      0848   78 79  240/  5/  7 1014.9F
DIAMOND SHLS NC  0850   82 85  280/ 14/ 16 1015.0F   3/ 4   2/ 8
CAPE LOOKOUT NC  0800   80     250/  8/ 11 1015.3F
$$




USA.gov is the U.S. government's official web portal to all federal, state and local government web resources and services.